Location: *
(51.5000°N, 0.1100°W)
Time: 20:43:49
(UTC+00:00)

Cosmos 1954 Rocket - Pass Details

Date: 25 May 2024
Orbit: 750 x 778 km, 74.0° (Epoch: 24 June)

Event Time Altitude Azimuth Distance (km) Brightness Sun altitude
Exits shadow 01:13:50 23° 219° (SW) 1,617 5.1 -15.6°
Maximum altitude 01:17:11 67° 298° (WNW) 845 4.2 -15.4°
Drops below altitude 10° 01:22:29 10° 21° (NNE) 2,339 7.9 -15.1°
Sets 01:24:54 0° 24° (NNE) 3,267 9.2 -15.0°
